Location: Unspecified
(47.9110°N, 14.3980°E)
Time: 05:37:25
(UTC+00:00)

Cosmos 1733 Rocket - Pass Details

Date: 06 August 2020
Orbit: 603 x 628 km, 82.5° (Epoch: 23 September)

Event Time Altitude Azimuth Distance (km) Brightness Sun altitude
Exits shadow 22:18:37 58° 62° (ENE) 721 3.3 -24.8°
Drops below altitude 10° 22:22:31 10° 16° (NNE) 1,995 6.5 -24.9°
Sets 22:24:46 0° 13° (NNE) 2,910 7.6 -25.0°
